Location: G�yn�k
(36.6721°N, 30.5542°E)
Time: 23:50:49
(UTC+00:00)

BREEZE-M DEB (TANK) - Pass Details

Date: 02 October 2020
Orbit: 333 x 12040 km, 49.7° (Epoch: 26 October)

Event Time Altitude Azimuth Distance (km) Brightness Sun altitude
Rises 02:16:53 0° 205° (SSW) 13,461 8.8 -20.2°
Reaches altitude 10° 02:27:18 10° 203° (SSW) 13,654 8.8 -18.2°
Maximum altitude 04:06:17 83° 129° (SE) 9,535 8.5 1.6°
Drops below altitude 10° 04:44:33 10° 54° (NE) 7,181 8.5 9.2°
Sets 04:47:56 0° 54° (NE) 7,445 8.5 9.8°
